Frankfort, MI

5:48 AM EST on December 06, 2019 (GMT -0500)
Frankfort

Weather History for KFKS - October, 2019

Change the Weather History Date:

Sunday, October 27, 2019

  Actual Average (KMBL) Record (KMBL)
Temperature  
Mean Temperature 50 °F -  
Max Temperature 54 °F 57 °F 75 °F (1955)
Min Temperature 45 °F 39 °F 17 °F (1976)
Degree Days  
Heating Degree Days 16    
Moisture  
Dew Point 42 °F    
Average Humidity 73    
Maximum Humidity 84    
Minimum Humidity 54    
Precipitation  
Precipitation 0.00 in - - ()
Sea Level Pressure  
Sea Level Pressure 29.73 in    
Wind  
Wind Speed 7 mph (WNW)    
Max Wind Speed 14 mph    
Max Gust Speed 20 mph    
Visibility 8 miles    
Events Rain    
Averages and records for this station are not official NWS values.
T = Trace of Precipitation, MM = Missing Value Source: NWS Daily Summary

Daily Weather History Graph

Daily Weather History Graph

Search for Another Location

Airport or City:

Astronomy

Oct. 27, 2019 Rise Set
Actual Time 8:15 AM EDT 6:41 PM EDT
Civil Twilight 7:45 AM EDT 7:11 PM EDT
Nautical Twilight 7:11 AM EDT 7:45 PM EDT
Astronomical Twilight 6:37 AM EDT 8:19 PM EDT
Moon 7:18 AM EDT (10/27) 6:53 PM EDT (10/27)
Length of Visible Light 11h 25m
Length of Day
10h 25m
Waning Crescent, 0% of the Moon is Illuminated
Oct 27
Waning Crescent
Oct 27
New
Nov 4
First Quarter
Nov 12
Full
Nov 19
Last Quarter

Hourly Weather History & Observations

Time (EDT) Temp. Windchill Dew Point Humidity Pressure Visibility Wind Dir Wind Speed Gust Speed Precip Events Conditions
12:15 AM 46.0 °F 41.4 °F 41.0 °F 83% 29.64 in 7.0 mi ENE 9.2 mph 16.1 mph N/A Rain Rain
12:35 AM 46.4 °F 41.9 °F 41.2 °F 82% 29.62 in 7.0 mi ENE 9.2 mph 19.6 mph N/A Rain Rain
12:36 AM 46.4 °F 41.9 °F 41.2 °F 82% 29.62 in 7.0 mi ENE 9.2 mph 19.6 mph N/A Rain Rain
12:59 AM 46.6 °F - 41.4 °F 82% 29.60 in 7.0 mi ENE 9.2 mph - N/A Rain Rain
1:17 AM 46.8 °F - 41.9 °F 83% 29.58 in 4.0 mi ENE 8.1 mph - N/A Rain Heavy Rain
1:35 AM 47.3 °F - 42.4 °F 83% 29.58 in 5.0 mi ENE 6.9 mph - N/A Rain Rain
1:55 AM 47.5 °F - 42.8 °F 84% 29.57 in 7.0 mi NE 5.8 mph - N/A Rain Rain
1:56 AM 47.5 °F - 42.8 °F 84% 29.56 in 7.0 mi NE 4.6 mph - N/A Rain Rain
2:15 AM 47.7 °F - 42.8 °F 83% 29.55 in 5.0 mi NNE 5.8 mph - N/A Rain Rain
2:38 AM 47.8 °F - 42.8 °F 83% 29.53 in 4.0 mi NNE 5.8 mph - N/A Rain Rain
2:56 AM 47.7 °F - 43.0 °F 84% 29.52 in 5.0 mi North 8.1 mph - N/A Rain Rain
3:15 AM 48.2 °F - 43.2 °F 83% 29.51 in 4.0 mi North 5.8 mph - N/A Rain Rain
3:16 AM 48.2 °F - 43.3 °F 83% 29.51 in 4.0 mi NNE 4.6 mph - N/A Rain Rain
3:35 AM 48.6 °F - 43.9 °F 84% 29.50 in 4.0 mi North 3.5 mph - N/A Rain Heavy Rain
3:36 AM 48.7 °F - 44.1 °F 84% 29.50 in 4.0 mi North 3.5 mph - N/A Rain Heavy Rain
3:59 AM 49.1 °F - 44.2 °F 83% 29.50 in 2.0 mi North 5.8 mph - N/A Rain Heavy Rain
4:17 AM 49.1 °F - 44.2 °F 83% 29.50 in 5.0 mi North 8.1 mph - N/A Rain Rain
4:35 AM 49.3 °F - 44.6 °F 84% 29.50 in 5.0 mi North 5.8 mph - N/A Rain Heavy Rain
4:55 AM 49.5 °F - 44.6 °F 83% 29.50 in 4.0 mi NNE 6.9 mph - N/A Rain Heavy Rain
5:15 AM 49.6 °F - 44.6 °F 83% 29.50 in 7.0 mi NNE 4.6 mph - N/A Rain Rain
5:20 AM 49.8 °F - 44.8 °F 83% 29.50 in 7.0 mi NNE 6.9 mph - N/A   Drizzle
5:38 AM 50.0 °F - 45.0 °F 83% 29.50 in 10.0 mi North 3.5 mph - N/A   Overcast
5:56 AM 50.2 °F - 45.1 °F 83% 29.50 in 10.0 mi NNE 5.8 mph - N/A   Overcast
6:15 AM 50.4 °F - 45.5 °F 83% 29.51 in 10.0 mi North 3.5 mph - N/A Rain Rain
6:35 AM 50.9 °F - 45.7 °F 82% 29.51 in 7.0 mi Calm Calm - N/A Rain Light Rain
6:59 AM 51.4 °F - 46.6 °F 83% 29.52 in 7.0 mi North 5.8 mph - N/A Rain Light Rain
7:55 AM 52.0 °F - 47.1 °F 83% 29.58 in 3.0 mi NW 11.5 mph 19.6 mph N/A   Light Drizzle
8:15 AM 51.8 °F - 46.8 °F 83% 29.59 in 2.5 mi NNW 9.2 mph - N/A   Drizzle
8:20 AM 51.8 °F - 46.9 °F 83% 29.60 in 3.0 mi NNW 10.4 mph 17.3 mph N/A   Light Drizzle
8:38 AM 51.8 °F - 46.4 °F 82% 29.61 in 10.0 mi NNW 11.5 mph 18.4 mph N/A   Overcast
8:56 AM 51.4 °F - 46.2 °F 82% 29.63 in 7.0 mi NW 9.2 mph - N/A   Overcast
9:15 AM 51.8 °F - 46.0 °F 81% 29.65 in 10.0 mi NW 9.2 mph - N/A   Overcast
9:35 AM 51.8 °F - 46.4 °F 82% 29.66 in 10.0 mi NNW 8.1 mph - N/A   Overcast
9:59 AM 51.8 °F - 46.6 °F 82% 29.70 in 10.0 mi NW 13.8 mph 19.6 mph N/A   Overcast
10:17 AM 51.8 °F - 46.2 °F 81% 29.71 in 10.0 mi NW 12.7 mph 19.6 mph N/A   Overcast
10:35 AM 51.4 °F - 45.7 °F 81% 29.71 in 10.0 mi NNW 10.4 mph 19.6 mph N/A   Overcast
10:36 AM 51.4 °F - 45.5 °F 80% 29.71 in 10.0 mi NW 11.5 mph 19.6 mph N/A   Overcast
10:55 AM 51.3 °F - 45.1 °F 80% 29.71 in 10.0 mi NNW 8.1 mph - N/A   Overcast
11:15 AM 51.8 °F - 45.3 °F 79% 29.73 in 10.0 mi NW 10.4 mph - N/A   Overcast
11:38 AM 52.0 °F - 44.4 °F 75% 29.74 in 10.0 mi NW 5.8 mph - N/A   Overcast
11:56 AM 52.7 °F - 44.4 °F 73% 29.76 in 10.0 mi NW 6.9 mph - N/A   Overcast
12:15 PM 53.8 °F - 45.1 °F 73% 29.78 in 10.0 mi NW 9.2 mph - N/A   Overcast
12:16 PM 54.0 °F - 45.0 °F 72% 29.77 in 10.0 mi NW 10.4 mph - N/A   Overcast
12:35 PM 54.3 °F - 43.7 °F 67% 29.78 in 10.0 mi WNW 11.5 mph 17.3 mph N/A   Mostly Cloudy
12:59 PM 53.1 °F - 43.3 °F 70% 29.79 in 10.0 mi West 8.1 mph - N/A   Overcast
1:17 PM 54.5 °F - 43.0 °F 65% 29.80 in 10.0 mi West 9.2 mph - N/A   Mostly Cloudy
1:35 PM 52.9 °F - 42.8 °F 69% 29.81 in 10.0 mi West 8.1 mph - N/A   Overcast
1:36 PM 52.9 °F - 42.8 °F 69% 29.81 in 10.0 mi West 8.1 mph - N/A   Overcast
1:55 PM 52.9 °F - 41.7 °F 66% 29.82 in 10.0 mi West 10.4 mph - N/A   Overcast
2:15 PM 54.5 °F - 41.4 °F 61% 29.82 in 10.0 mi West 10.4 mph - N/A   Mostly Cloudy
2:38 PM 54.3 °F - 40.5 °F 59% 29.81 in 10.0 mi WSW 6.9 mph - N/A   Scattered Clouds
2:56 PM 54.1 °F - 39.4 °F 57% 29.82 in 10.0 mi West 5.8 mph - N/A   Clear
3:15 PM 54.0 °F - 39.0 °F 57% 29.82 in 10.0 mi West 8.1 mph - N/A   Clear
3:16 PM 54.0 °F - 39.0 °F 57% 29.82 in 10.0 mi West 6.9 mph - N/A   Clear
3:35 PM 54.7 °F - 39.6 °F 57% 29.82 in 10.0 mi West 5.8 mph - N/A   Clear
3:59 PM 54.0 °F - 38.1 °F 55% 29.81 in 10.0 mi West 4.6 mph - N/A   Clear
4:16 PM 53.4 °F - 37.2 °F 54% 29.82 in 10.0 mi WSW 5.8 mph - N/A   Clear
4:35 PM 53.6 °F - 38.7 °F 57% 29.84 in 10.0 mi SW 10.4 mph - N/A   Clear
4:55 PM 52.9 °F - 39.7 °F 61% 29.87 in 10.0 mi SW 6.9 mph 16.1 mph N/A   Clear
4:56 PM 53.1 °F - 39.7 °F 61% 29.87 in 10.0 mi SW 8.1 mph - N/A   Clear
5:19 PM 52.3 °F - 38.8 °F 60% 29.88 in 10.0 mi SSW 9.2 mph - N/A   Clear
5:37 PM 52.0 °F - 37.9 °F 59% 29.88 in 10.0 mi SW 5.8 mph - N/A   Clear
5:55 PM 51.8 °F - 36.5 °F 56% 29.88 in 10.0 mi SSW 6.9 mph - N/A   Clear
6:15 PM 51.3 °F - 36.0 °F 56% 29.88 in 10.0 mi SSW 4.6 mph - N/A   Clear
6:35 PM 50.4 °F - 37.0 °F 60% 29.89 in 10.0 mi SSW 5.8 mph - N/A   Clear
6:40 PM 50.4 °F - 37.0 °F 60% 29.89 in 10.0 mi SSW 5.8 mph - N/A   Clear
6:58 PM 50.9 °F - 37.8 °F 61% 29.90 in 10.0 mi South 5.8 mph - N/A   Clear
7:16 PM 50.9 °F - 39.2 °F 64% 29.90 in 10.0 mi South 3.5 mph - N/A   Clear
7:35 PM 50.7 °F - 40.1 °F 67% 29.90 in 10.0 mi South 3.5 mph - N/A   Clear
7:36 PM 50.7 °F - 40.1 °F 67% 29.90 in 10.0 mi South 4.6 mph - N/A   Clear
7:55 PM 51.6 °F - 40.5 °F 66% 29.91 in 10.0 mi SSW 6.9 mph - N/A   Clear
7:56 PM 51.6 °F - 40.5 °F 66% 29.91 in 10.0 mi SSW 6.9 mph - N/A   Clear
8:19 PM 50.7 °F - 40.1 °F 67% 29.92 in 10.0 mi Calm Calm - N/A   Clear
8:37 PM 50.0 °F - 40.3 °F 69% 29.91 in 10.0 mi Calm Calm - N/A   Clear
8:55 PM 50.5 °F - 40.5 °F 68% 29.92 in 10.0 mi South 3.5 mph - N/A   Clear
9:15 PM 50.7 °F - 41.0 °F 69% 29.92 in 10.0 mi Calm Calm - N/A   Clear
9:35 PM 50.9 °F - 41.5 °F 70% 29.93 in 10.0 mi SSW 4.6 mph - N/A   Clear
9:40 PM 50.9 °F - 41.7 °F 71% 29.93 in 10.0 mi SSW 3.5 mph - N/A   Clear
9:58 PM 50.9 °F - 42.1 °F 72% 29.93 in 10.0 mi SSW 3.5 mph - N/A   Clear
10:16 PM 50.5 °F - 42.4 °F 74% 29.93 in 10.0 mi SSW 4.6 mph - N/A   Clear
10:35 PM 50.5 °F - 42.8 °F 75% 29.93 in 10.0 mi SSW 3.5 mph - N/A   Clear
10:55 PM 50.4 °F - 42.8 °F 75% 29.93 in 10.0 mi Calm Calm - N/A   Clear
10:56 PM 50.5 °F - 42.8 °F 75% 29.93 in 10.0 mi Calm Calm - N/A   Clear
11:19 PM 49.5 °F - 41.7 °F 75% 29.93 in 10.0 mi Calm Calm - N/A   Clear
11:37 PM 45.7 °F - 40.3 °F 81% 29.93 in 10.0 mi Calm Calm - N/A   Clear
11:55 PM 45.7 °F - 40.1 °F 81% 29.93 in 10.0 mi Calm Calm - N/A   Clear